Temp
-6 -6 -6 -7 -7 -7 -7 -7 -7 -7 -7 -7 -7 -7 -7 -7 -8 -8 -8 -8 -8 -8 -8 -8 -8 -8 -8 -8 -8 -8 -8 -8 -8 -8 -8 -8 -8 -8 -9 -9 -9 -9 -9 -9 -9 -9 -9 -9 -8 -8 -8 -8 -8 -8 -8 -7 -7 -7 -7 -7 -7 -7 -7 -7 -7 -7 -6 -6 -6 -6 -6 -6 -6 -6
-6 -6 -6 -6 -7 -7 -7 -7 -7 -7 -7 -7 -7 -7 -7 -7 -7 -8 -8 -8 -8 -8 -8 -8 -8 -8 -8 -8 -8 -8 -8 -8 -8 -8 -8 -8 -8 -8 -9 -9 -9 -9 -9 -9 -9 -9 -9 -9 -8 -8 -8 -8 -8 -8 -8 -7 -7 -7 -7 -7 -7 -7 -7 -7 -7 -7 -6 -6 -6 -6 -6 -6 -6 -6
-6 -6 -6 -6 -6 -7 -7 -7 -7 -7 -7 -7 -7 -7 -7 -7 -7 -7 -8 -8 -8 -8 -8 -8 -8 -8 -8 -8 -8 -8 -8 -8 -8 -8 -8 -8 -8 -8 -8 -9 -9 -9 -9 -8 -8 -9 -9 -8 -8 -8 -8 -8 -8 -8 -8 -7 -7 -7 -7 -7 -7 -7 -7 -7 -7 -7 -6 -6 -6 -6 -6 -6 -6 -6
-6 -6 -6 -6 -6 -7 -7 -7 -7 -7 -7 -7 -7 -7 -7 -7 -7 -7 -7 -7 -8 -8 -8 -8 -8 -8 -8 -8 -8 -8 -8 -8 -8 -8 -8 -8 -8 -8 -8 -9 -9 -9 -8 -8 -8 -8 -9 -8 -8 -8 -8 -8 -8 -8 -8 -8 -7 -7 -7 -7 -7 -7 -7 -7 -7 -7 -6 -6 -6 -6 -6 -6 -6 -5
-6 -6 -6 -6 -6 -7 -7 -7 -7 -7 -7 -7 -7 -7 -7 -7 -7 -7 -7 -7 -7 -7 -8 -8 -8 -8 -8 -8 -8 -8 -8 -8 -8 -8 -8 -8 -7 -8 -8 -8 -9 -9 -9 -8 -8 -8 -8 -8 -8 -8 -8 -8 -8 -8 -8 -8 -8 -7 -7 -7 -7 -7 -7 -7 -7 -7 -7 -6 -6 -6 -6 -6 -6 -5
-6 -6 -6 -7 -7 -7 -7 -7 -7 -7 -7 -7 -7 -7 -7 -7 -7 -7 -7 -7 -7 -7 -7 -7 -7 -7 -7 -7 -7 -7 -7 -8 -8 -8 -8 -8 -7 -8 -8 -8 -9 -9 -8 -8 -8 -8 -8 -8 -8 -8 -8 -8 -8 -8 -8 -8 -8 -8 -7 -7 -7 -7 -7 -7 -7 -7 -7 -6 -6 -6 -6 -6 -5 -6
-6 -6 -6 -7 -7 -7 -7 -7 -7 -7 -7 -7 -7 -7 -7 -7 -7 -7 -7 -7 -7 -7 -7 -7 -7 -7 -7 -7 -7 -7 -7 -7 -7 -8 -8 -7 -7 -8 -8 -8 -8 -8 -8 -8 -8 -8 -8 -8 -8 -8 -8 -8 -8 -8 -8 -8 -8 -8 -7 -7 -7 -7 -7 -7 -7 -7 -7 -6 -6 -6 -6 -6 -5 -6
-6 -6 -6 -7 -7 -7 -7 -7 -7 -7 -7 -7 -7 -7 -7 -7 -7 -7 -7 -7 -7 -7 -7 -7 -7 -7 -7 -7 -7 -7 -7 -7 -7 -7 -7 -7 -7 -7 -7 -7 -8 -8 -8 -8 -8 -8 -8 -8 -8 -8 -8 -8 -8 -8 -7 -8 -8 -8 -7 -7 -7 -7 -7 -7 -7 -7 -7 -6 -6 -6 -6 -6 -5 -5
-6 -6 -6 -6 -6 -7 -7 -7 -7 -7 -7 -7 -7 -7 -7 -7 -7 -7 -7 -7 -7 -7 -7 -7 -7 -7 -7 -7 -7 -7 -7 -7 -7 -7 -7 -7 -7 -7 -8 -7 -8 -8 -8 -8 -8 -8 -8 -8 -8 -8 -8 -8 -8 -7 -7 -7 -8 -8 -7 -7 -7 -7 -7 -7 -7 -7 -7 -6 -6 -6 -6 -6 -5 -5
-6 -6 -6 -6 -6 -6 -6 -6 -7 -7 -7 -7 -7 -7 -7 -7 -7 -7 -7 -7 -7 -7 -7 -7 -7 -7 -7 -7 -7 -7 -7 -7 -7 -7 -7 -7 -7 -7 -8 -8 -8 -8 -8 -8 -8 -8 -8 -8 -8 -8 -8 -8 -8 -7 -7 -7 -7 -7 -7 -7 -7 -7 -7 -7 -7 -7 -6 -6 -6 -6 -6 -5 -5 -5
-6 -6 -6 -6 -6 -6 -6 -6 -6 -7 -7 -7 -7 -7 -7 -7 -7 -7 -7 -7 -7 -7 -7 -7 -7 -7 -7 -7 -7 -7 -7 -7 -7 -7 -7 -7 -7 -7 -7 -8 -8 -8 -8 -8 -8 -8 -8 -8 -8 -8 -8 -8 -8 -8 -7 -7 -7 -7 -7 -7 -7 -7 -7 -7 -7 -6 -6 -6 -6 -6 -6 -5 -5 -5
-6 -6 -6 -6 -6 -6 -6 -6 -6 -6 -7 -7 -7 -7 -7 -7 -7 -7 -7 -7 -7 -7 -7 -7 -7 -7 -7 -7 -7 -7 -7 -7 -7 -7 -7 -7 -7 -7 -7 -7 -7 -7 -7 -8 -8 -8 -8 -8 -8 -8 -8 -8 -8 -8 -8 -7 -7 -7 -7 -7 -7 -7 -7 -7 -7 -6 -6 -6 -6 -6 -6 -6 -5 -5
-6 -6 -6 -6 -6 -6 -6 -6 -6 -6 -6 -7 -7 -7 -7 -7 -7 -7 -7 -7 -7 -7 -7 -7 -7 -7 -7 -7 -6 -7 -7 -7 -7 -7 -7 -7 -7 -7 -7 -7 -7 -7 -7 -8 -8 -8 -8 -8 -8 -8 -8 -8 -8 -8 -8 -8 -7 -7 -7 -7 -7 -7 -7 -7 -6 -6 -6 -6 -6 -6 -6 -6 -5 -5
-6 -6 -6 -6 -6 -6 -6 -6 -6 -6 -6 -6 -6 -6 -6 -7 -7 -7 -7 -7 -7 -7 -7 -7 -7 -7 -7 -6 -6 -6 -6 -6 -7 -7 -7 -7 -7 -7 -7 -7 -7 -7 -8 -8 -8 -8 -8 -8 -8 -8 -8 -8 -8 -8 -8 -8 -8 -7 -7 -7 -7 -7 -7 -7 -6 -6 -6 -6 -6 -6 -6 -6 -5 -5
-6 -6 -6 -6 -6 -6 -6 -6 -6 -6 -6 -6 -6 -6 -6 -6 -6 -7 -7 -7 -7 -7 -7 -7 -6 -7 -7 -6 -6 -6 -6 -6 -6 -7 -7 -7 -7 -7 -7 -7 -7 -7 -7 -8 -8 -8 -8 -8 -8 -8 -8 -8 -9 -9 -8 -8 -8 -8 -7 -7 -7 -7 -7 -7 -6 -6 -6 -6 -6 -6 -6 -6 -6 -5
-6 -6 -6 -6 -6 -6 -6 -6 -6 -6 -6 -6 -6 -6 -6 -6 -6 -7 -7 -7 -7 -6 -6 -6 -6 -6 -6 -6 -6 -5 -5 -6 -6 -6 -6 -6 -7 -7 -7 -7 -7 -7 -7 -8 -8 -8 -8 -8 -8 -8 -8 -8 -9 -9 -9 -9 -8 -8 -8 -7 -7 -7 -7 -7 -7 -6 -6 -6 -6 -6 -6 -6 -6 -6
-6 -6 -6 -6 -6 -6 -6 -6 -6 -6 -6 -6 -6 -6 -6 -6 -6 -6 -6 -7 -7 -6 -6 -6 -6 -6 -6 -6 -6 -5 -5 -6 -6 -6 -6 -6 -6 -7 -7 -7 -7 -7 -7 -8 -8 -8 -8 -8 -8 -8 -8 -8 -9 -9 -9 -9 -9 -8 -8 -8 -7 -7 -7 -7 -7 -7 -6 -6 -6 -6 -6 -6 -6 -6
-6 -6 -6 -6 -6 -6 -6 -6 -6 -6 -6 -6 -6 -6 -6 -6 -6 -6 -6 -6 -6 -6 -6 -6 -6 -6 -6 -6 -6 -6 -5 -6 -6 -6 -6 -6 -6 -6 -6 -7 -7 -7 -7 -8 -8 -8 -8 -8 -8 -8 -8 -8 -9 -9 -9 -9 -9 -9 -8 -8 -7 -7 -7 -7 -7 -7 -6 -6 -6 -6 -6 -6 -6 -6
-6 -6 -6 -6 -6 -6 -6 -6 -6 -6 -6 -6 -6 -6 -6 -6 -6 -6 -6 -6 -6 -6 -6 -6 -6 -6 -6 -6 -6 -6 -6 -6 -6 -6 -6 -6 -6 -6 -6 -7 -7 -7 -7 -7 -8 -8 -8 -8 -8 -8 -8 -8 -9 -9 -9 -9 -9 -9 -9 -8 -8 -7 -7 -7 -7 -7 -7 -6 -6 -6 -6 -6 -6 -6
-6 -6 -6 -6 -6 -6 -6 -6 -6 -6 -6 -6 -6 -6 -6 -6 -6 -6 -6 -6 -6 -6 -6 -6 -6 -6 -6 -6 -6 -6 -6 -6 -6 -6 -6 -6 -6 -6 -6 -7 -7 -7 -7 -7 -8 -8 -8 -8 -8 -8 -8 -8 -8 -9 -9 -9 -9 -9 -9 -8 -8 -8 -7 -7 -7 -7 -7 -6 -6 -6 -6 -6 -6 -6
-5 -6 -6 -6 -6 -6 -6 -6 -6 -6 -6 -6 -6 -6 -6 -6 -6 -6 -6 -6 -6 -6 -6 -6 -6 -6 -6 -6 -6 -6 -6 -6 -6 -6 -6 -6 -6 -6 -6 -7 -7 -7 -7 -7 -7 -8 -8 -8 -8 -8 -8 -8 -8 -8 -9 -9 -9 -9 -8 -8 -8 -8 -7 -7 -7 -7 -7 -7 -6 -6 -6 -6 -6 -6
-5 -5 -6 -6 -6 -6 -6 -6 -6 -6 -6 -6 -6 -6 -6 -6 -6 -6 -6 -6 -6 -6 -6 -6 -6 -6 -6 -6 -6 -6 -6 -6 -6 -6 -6 -6 -6 -6 -6 -6 -7 -7 -7 -7 -7 -7 -8 -8 -8 -8 -8 -8 -8 -8 -8 -9 -9 -9 -8 -8 -8 -8 -8 -7 -7 -7 -7 -7 -6 -6 -6 -6 -6 -6
-5 -6 -6 -6 -6 -6 -6 -6 -6 -6 -6 -6 -6 -6 -6 -6 -6 -6 -6 -6 -6 -6 -6 -6 -6 -6 -6 -6 -6 -6 -6 -6 -6 -6 -6 -6 -6 -6 -6 -6 -7 -7 -7 -7 -7 -7 -7 -8 -8 -8 -8 -8 -8 -8 -8 -9 -9 -9 -8 -8 -8 -8 -8 -7 -7 -7 -7 -7 -7 -6 -6 -6 -6 -6
-5 -6 -6 -6 -6 -6 -6 -6 -6 -6 -6 -5 -5 -5 -5 -6 -6 -6 -6 -6 -6 -6 -6 -6 -6 -6 -6 -6 -6 -6 -6 -6 -6 -6 -6 -6 -6 -6 -6 -7 -7 -7 -7 -7 -7 -7 -7 -8 -8 -8 -8 -8 -8 -8 -8 -8 -8 -8 -8 -8 -8 -8 -8 -7 -7 -7 -7 -7 -7 -7 -6 -6 -6 -6
-5 -5 -6 -6 -6 -6 -6 -6 -6 -6 -6 -5 -5 -5 -5 -6 -6 -6 -6 -6 -6 -6 -6 -6 -6 -6 -6 -6 -6 -6 -6 -6 -6 -6 -6 -6 -6 -6 -7 -7 -7 -7 -7 -7 -7 -7 -7 -7 -8 -8 -8 -8 -8 -8 -8 -8 -8 -8 -8 -9 -9 -8 -8 -8 -7 -7 -7 -7 -7 -7 -7 -7 -6 -6
-6 -6 -6 -6 -6 -6 -6 -6 -5 -5 -5 -5 -5 -5 -5 -6 -6 -6 -6 -6 -6 -6 -6 -6 -6 -6 -6 -6 -6 -6 -6 -6 -6 -6 -6 -6 -6 -6 -7 -6 -7 -7 -7 -7 -7 -7 -7 -7 -8 -8 -8 -8 -8 -8 -8 -8 -8 -8 -8 -9 -9 -9 -8 -8 -8 -7 -7 -7 -7 -7 -7 -7 -7 -6
-6 -6 -6 -6 -6 -6 -5 -5 -5 -5 -5 -5 -5 -5 -5 -5 -5 -5 -5 -6 -6 -6 -6 -6 -6 -6 -6 -6 -6 -6 -6 -6 -6 -6 -6 -7 -7 -7 -7 -7 -7 -7 -7 -7 -7 -7 -7 -7 -8 -8 -8 -8 -8 -8 -8 -8 -8 -8 -8 -8 -8 -8 -8 -8 -8 -8 -7 -7 -7 -7 -7 -7 -7 -6
-6 -6 -6 -6 -6 -6 -5 -5 -5 -5 -5 -5 -5 -5 -5 -5 -5 -5 -5 -5 -6 -6 -6 -6 -6 -6 -6 -6 -6 -6 -6 -6 -6 -6 -6 -7 -7 -7 -7 -7 -7 -7 -7 -7 -7 -7 -7 -8 -8 -8 -8 -8 -8 -8 -8 -8 -8 -8 -8 -8 -8 -8 -8 -8 -8 -8 -8 -7 -7 -7 -7 -7 -7 -6
-6 -6 -6 -6 -6 -6 -6 -6 -5 -5 -5 -5 -6 -5 -5 -5 -5 -5 -5 -5 -5 -5 -6 -6 -6 -6 -6 -6 -6 -6 -6 -6 -6 -6 -6 -7 -7 -7 -7 -7 -7 -7 -7 -7 -7 -7 -8 -8 -8 -8 -8 -8 -8 -8 -8 -8 -8 -8 -8 -8 -8 -8 -8 -8 -8 -8 -8 -8 -7 -7 -7 -7 -7 -7
-6 -6 -6 -6 -6 -6 -6 -6 -6 -6 -6 -6 -6 -6 -6 -6 -6 -6 -6 -5 -5 -5 -5 -6 -6 -6 -6 -6 -6 -6 -6 -6 -6 -6 -6 -7 -7 -7 -7 -7 -7 -7 -7 -7 -7 -8 -8 -8 -8 -8 -8 -8 -8 -8 -8 -8 -8 -8 -8 -8 -8 -8 -8 -8 -8 -8 -8 -8 -7 -7 -7 -7 -7 -7
-7 -6 -6 -6 -6 -6 -6 -6 -6 -6 -6 -6 -6 -6 -6 -6 -6 -6 -6 -6 -6 -6 -6 -6 -6 -6 -6 -6 -6 -6 -6 -6 -6 -6 -7 -7 -7 -7 -7 -7 -7 -7 -8 -7 -7 -8 -8 -8 -8 -8 -8 -8 -8 -8 -8 -8 -8 -8 -8 -8 -8 -8 -8 -8 -7 -7 -8 -7 -7 -7 -7 -7 -7 -7
-6 -6 -6 -6 -6 -6 -6 -6 -6 -6 -6 -6 -6 -6 -6 -6 -6 -6 -6 -6 -6 -6 -6 -6 -6 -6 -6 -6 -6 -6 -6 -6 -6 -6 -7 -7 -7 -7 -7 -7 -7 -7 -7 -7 -7 -7 -8 -8 -8 -8 -8 -8 -7 -7 -8 -8 -8 -8 -7 -8 -8 -8 -8 -7 -7 -7 -7 -7 -7 -7 -7 -7 -7 -7
-5 -5 -5 -6 -6 -6 -6 -6 -6 -6 -6 -6 -6 -6 -6 -6 -6 -6 -6 -6 -6 -6 -6 -6 -6 -6 -6 -6 -6 -6 -6 -6 -6 -6 -6 -7 -7 -7 -7 -8 -8 -8 -7 -7 -7 -7 -7 -8 -8 -8 -8 -8 -8 -8 -7 -8 -8 -7 -7 -7 -8 -7 -7 -7 -7 -7 -7 -7 -7 -7 -7 -7 -7 -7
-5 -5 -5 -5 -6 -6 -6 -6 -6 -7 -7 -7 -7 -7 -6 -6 -6 -6 -6 -6 -6 -6 -6 -7 -7 -7 -7 -7 -6 -6 -6 -6 -6 -6 -6 -7 -7 -7 -7 -8 -8 -8 -7 -7 -7 -7 -7 -7 -7 -7 -7 -8 -8 -8 -8 -7 -7 -7 -7 -8 -8 -7 -7 -7 -8 -8 -8 -8 -8 -7 -7 -7 -7 -7
-6 -5 -5 -5 -6 -6 -6 -6 -7 -7 -7 -7 -7 -7 -6 -6 -6 -6 -6 -6 -6 -6 -6 -6 -7 -7 -7 -7 -6 -6 -6 -6 -6 -6 -6 -6 -6 -7 -7 -8 -8 -8 -8 -7 -7 -7 -7 -7 -7 -7 -7 -8 -8 -8 -8 -7 -7 -7 -8 -8 -8 -7 -7 -7 -8 -8 -8 -8 -8 -8 -8 -7 -7 -7
-6 -6 -6 -6 -6 -6 -6 -6 -7 -7 -7 -7 -7 -7 -7 -6 -6 -6 -6 -6 -6 -6 -6 -6 -6 -7 -7 -6 -6 -6 -6 -6 -6 -6 -6 -6 -7 -7 -7 -8 -8 -8 -8 -8 -8 -8 -7 -7 -7 -7 -8 -8 -8 -8 -8 -8 -7 -8 -8 -8 -8 -7 -8 -8 -8 -8 -8 -8 -8 -8 -8 -8 -7 -7
-7 -7 -7 -7 -7 -7 -6 -6 -6 -7 -7 -7 -7 -7 -7 -7 -6 -6 -6 -6 -6 -6 -6 -6 -6 -6 -6 -6 -6 -6 -6 -6 -6 -6 -6 -6 -7 -7 -8 -8 -8 -8 -8 -8 -8 -8 -7 -7 -7 -7 -8 -8 -8 -8 -8 -8 -8 -8 -8 -8 -8 -7 -8 -8 -8 -8 -8 -8 -8 -8 -8 -8 -8 -8
-8 -8 -8 -8 -8 -8 -8 -7 -7 -7 -7 -7 -7 -7 -7 -7 -7 -6 -6 -6 -6 -6 -6 -6 -6 -6 -6 -6 -6 -6 -6 -6 -6 -6 -6 -7 -7 -7 -8 -8 -8 -8 -8 -8 -8 -8 -7 -7 -7 -7 -8 -7 -7 -8 -8 -8 -8 -8 -8 -8 -7 -7 -8 -8 -8 -8 -8 -8 -8 -8 -8 -8 -8 -8
-8 -8 -8 -8 -8 -8 -8 -8 -7 -7 -7 -7 -7 -7 -7 -7 -7 -7 -6 -6 -6 -6 -6 -6 -6 -6 -6 -6 -6 -6 -7 -6 -6 -7 -7 -7 -7 -8 -8 -8 -8 -8 -8 -8 -8 -8 -8 -7 -8 -8 -7 -7 -7 -7 -8 -8 -8 -8 -8 -8 -7 -7 -8 -8 -8 -8 -8 -8 -8 -8 -8 -8 -8 -8
-8 -8 -8 -8 -8 -8 -9 -9 -8 -8 -8 -8 -7 -7 -7 -7 -7 -7 -7 -7 -7 -6 -6 -6 -6 -6 -6 -6 -6 -6 -7 -6 -6 -7 -7 -7 -7 -8 -8 -8 -8 -8 -8 -8 -8 -8 -8 -8 -8 -7 -7 -7 -7 -7 -8 -8 -8 -8 -8 -8 -7 -7 -8 -8 -8 -8 -8 -8 -7 -7 -7 -8 -8 -8
-8 -8 -8 -8 -8 -8 -8 -8 -8 -8 -8 -8 -8 -7 -7 -7 -7 -7 -7 -7 -7 -7 -7 -6 -6 -6 -6 -6 -6 -6 -7 -6 -6 -6 -7 -7 -7 -8 -8 -8 -8 -8 -8 -8 -8 -8 -8 -8 -7 -7 -6 -7 -7 -7 -8 -8 -8 -8 -8 -8 -8 -8 -8 -8 -8 -8 -8 -8 -8 -8 -8 -8 -8 -8
-8 -8 -7 -7 -8 -8 -8 -8 -8 -8 -8 -8 -8 -8 -7 -7 -7 -7 -7 -7 -7 -7 -7 -7 -7 -6 -6 -6 -6 -6 -6 -6 -6 -6 -6 -7 -7 -8 -8 -9 -9 -8 -8 -8 -8 -8 -8 -8 -7 -7 -7 -7 -7 -7 -8 -8 -8 -8 -8 -8 -8 -8 -8 -8 -8 -8 -8 -8 -8 -8 -8 -8 -8 -8
-7 -7 -7 -7 -8 -8 -8 -8 -8 -8 -8 -8 -8 -8 -8 -8 -7 -7 -7 -7 -7 -7 -7 -7 -7 -7 -7 -6 -6 -6 -6 -6 -6 -6 -6 -7 -7 -8 -8 -9 -9 -8 -8 -8 -8 -8 -8 -8 -8 -8 -7 -8 -8 -8 -8 -8 -9 -9 -8 -8 -8 -8 -9 -9 -8 -8 -8 -8 -8 -8 -7 -7 -7 -8
-7 -7 -7 -7 -8 -8 -8 -8 -8 -8 -8 -8 -8 -8 -8 -8 -8 -8 -8 -8 -7 -7 -7 -7 -7 -7 -7 -7 -7 -7 -6 -6 -6 -7 -7 -7 -7 -8 -8 -9 -9 -8 -8 -8 -8 -7 -7 -8 -8 -8 -8 -8 -8 -8 -8 -8 -9 -9 -9 -9 -8 -9 -9 -9 -9 -8 -8 -8 -8 -8 -7 -7 -7 -8
-7 -7 -7 -7 -7 -7 -8 -8 -8 -8 -8 -8 -8 -8 -8 -8 -8 -8 -8 -8 -8 -8 -7 -7 -7 -7 -7 -7 -7 -7 -7 -7 -7 -7 -7 -7 -7 -7 -8 -8 -8 -8 -8 -8 -8 -8 -8 -8 -8 -8 -8 -8 -8 -8 -8 -8 -9 -9 -9 -9 -9 -8 -9 -9 -9 -8 -8 -8 -8 -8 -7 -7 -8 -8
Height
5972 5973 5974 5975 5976 5977 5977 5978 5979 5979 5980 5980 5981 5981 5981 5982 5982 5983 5983 5984 5984 5985 5985 5985 5986 5986 5986 5986 5987 5987 5987 5987 5987 5987 5986 5985 5984 5984 5983 5983 5983 5982 5980 5978 5977 5976 5974 5973 5972 5971 5969 5968 5966 5964 5962 5960 5958 5956 5953 5950 5948 5945 5943 5941 5937 5934 5930 5927 5925 5922 5920 5917 5914 5911
5972 5973 5974 5975 5976 5977 5978 5978 5979 5980 5980 5981 5981 5981 5982 5982 5982 5983 5983 5984 5984 5985 5985 5986 5986 5986 5986 5986 5987 5987 5987 5987 5987 5986 5986 5985 5984 5983 5983 5983 5983 5982 5980 5978 5977 5975 5974 5973 5972 5971 5970 5968 5966 5964 5962 5960 5958 5956 5953 5951 5948 5946 5944 5941 5938 5934 5931 5928 5926 5924 5922 5919 5916 5913
5972 5973 5974 5975 5976 5977 5978 5979 5979 5980 5980 5981 5981 5982 5982 5982 5983 5983 5983 5984 5984 5985 5985 5985 5986 5986 5986 5986 5986 5986 5987 5987 5986 5986 5986 5985 5984 5983 5983 5983 5982 5982 5980 5978 5976 5975 5974 5973 5972 5971 5970 5968 5966 5964 5962 5961 5958 5956 5954 5951 5949 5947 5944 5942 5938 5935 5932 5930 5927 5925 5923 5920 5917 5915
5972 5973 5973 5974 5975 5977 5978 5978 5979 5980 5980 5981 5981 5982 5982 5983 5983 5983 5983 5984 5984 5984 5985 5985 5985 5985 5985 5985 5986 5986 5986 5986 5986 5986 5985 5985 5984 5983 5982 5982 5982 5981 5980 5978 5976 5975 5974 5973 5972 5971 5969 5968 5966 5964 5962 5961 5959 5956 5954 5952 5950 5947 5945 5942 5939 5935 5933 5931 5929 5927 5925 5922 5919 5916
5972 5972 5973 5974 5975 5976 5977 5978 5979 5979 5980 5981 5981 5982 5982 5983 5983 5983 5983 5983 5984 5984 5984 5985 5985 5985 5985 5985 5985 5985 5985 5985 5985 5985 5985 5985 5984 5983 5982 5982 5981 5980 5979 5978 5976 5975 5974 5973 5972 5971 5969 5968 5966 5964 5963 5961 5959 5957 5954 5952 5950 5948 5946 5943 5939 5936 5934 5932 5930 5928 5926 5923 5921 5918
5972 5972 5973 5974 5975 5976 5977 5978 5978 5979 5979 5980 5981 5981 5982 5982 5982 5983 5983 5983 5983 5983 5984 5984 5984 5984 5984 5984 5984 5984 5984 5984 5984 5984 5984 5984 5983 5982 5981 5981 5981 5980 5979 5978 5977 5975 5974 5973 5972 5970 5969 5967 5966 5964 5963 5961 5959 5957 5955 5953 5951 5949 5946 5943 5940 5937 5935 5933 5931 5929 5927 5925 5922 5920
5971 5972 5973 5973 5974 5975 5976 5976 5977 5978 5978 5979 5980 5980 5981 5981 5981 5982 5982 5982 5982 5982 5983 5983 5983 5983 5983 5983 5983 5983 5983 5983 5983 5983 5983 5983 5982 5981 5980 5980 5980 5979 5978 5977 5977 5975 5974 5973 5972 5970 5969 5967 5966 5964 5963 5961 5959 5957 5955 5953 5951 5949 5947 5944 5941 5939 5937 5934 5932 5930 5928 5926 5924 5921
5971 5972 5972 5973 5973 5974 5974 5975 5975 5976 5977 5977 5978 5979 5979 5980 5980 5980 5980 5981 5981 5981 5981 5982 5982 5982 5982 5982 5982 5981 5981 5981 5981 5981 5981 5981 5981 5980 5980 5979 5980 5979 5978 5977 5976 5975 5974 5972 5971 5970 5969 5967 5966 5964 5963 5961 5959 5957 5955 5953 5951 5949 5947 5944 5942 5939 5937 5935 5933 5931 5929 5927 5925 5922
5970 5971 5972 5972 5973 5973 5973 5974 5974 5975 5975 5976 5976 5977 5977 5978 5979 5979 5979 5979 5980 5980 5980 5980 5980 5980 5980 5980 5980 5980 5980 5979 5979 5979 5979 5979 5979 5979 5979 5978 5978 5978 5977 5976 5975 5974 5973 5972 5970 5969 5968 5967 5965 5964 5963 5961 5959 5957 5955 5953 5951 5949 5947 5945 5942 5940 5938 5936 5934 5932 5930 5928 5926 5923
5970 5970 5971 5972 5972 5972 5973 5973 5973 5974 5974 5975 5975 5975 5976 5976 5977 5977 5978 5978 5978 5979 5979 5979 5979 5979 5979 5979 5978 5979 5978 5978 5977 5977 5977 5978 5977 5977 5977 5977 5976 5977 5976 5975 5974 5973 5972 5971 5969 5968 5968 5966 5965 5963 5962 5960 5958 5957 5954 5952 5950 5948 5946 5945 5943 5940 5938 5937 5935 5933 5931 5928 5926 5924
5969 5970 5970 5971 5971 5972 5972 5972 5973 5973 5973 5974 5974 5974 5975 5975 5976 5976 5976 5977 5977 5977 5977 5977 5977 5977 5977 5977 5977 5977 5977 5977 5976 5975 5975 5975 5976 5976 5976 5976 5975 5975 5975 5974 5973 5972 5971 5969 5968 5967 5967 5965 5964 5962 5960 5959 5958 5956 5954 5952 5950 5948 5946 5945 5943 5941 5939 5937 5935 5933 5931 5929 5927 5925
5968 5968 5969 5970 5970 5971 5972 5972 5972 5972 5973 5973 5973 5973 5974 5974 5975 5975 5975 5976 5976 5976 5976 5976 5975 5975 5976 5975 5975 5975 5975 5975 5975 5974 5974 5973 5973 5973 5974 5974 5973 5973 5972 5972 5971 5970 5969 5968 5967 5966 5965 5964 5963 5961 5959 5958 5956 5955 5953 5951 5949 5947 5946 5944 5943 5941 5939 5937 5935 5933 5931 5929 5927 5925
5967 5967 5968 5968 5969 5970 5971 5971 5972 5972 5972 5972 5972 5972 5972 5973 5973 5974 5974 5975 5975 5975 5975 5975 5974 5974 5974 5974 5973 5973 5973 5973 5973 5973 5972 5972 5971 5971 5971 5971 5972 5971 5970 5970 5970 5968 5967 5967 5966 5965 5964 5962 5961 5959 5958 5956 5954 5953 5952 5950 5948 5947 5945 5943 5942 5940 5938 5936 5935 5933 5931 5929 5927 5925
5966 5966 5967 5967 5968 5968 5969 5970 5970 5971 5971 5971 5971 5971 5971 5972 5972 5972 5973 5973 5973 5974 5974 5974 5973 5973 5973 5972 5972 5972 5972 5971 5971 5971 5970 5970 5969 5969 5968 5969 5969 5969 5968 5968 5967 5967 5965 5965 5964 5963 5962 5961 5959 5957 5956 5954 5953 5951 5950 5949 5947 5946 5944 5943 5941 5939 5938 5936 5934 5932 5931 5929 5927 5925
5964 5964 5965 5966 5966 5967 5968 5968 5969 5969 5970 5970 5970 5970 5970 5970 5971 5971 5971 5971 5972 5972 5972 5972 5972 5972 5971 5971 5970 5970 5970 5970 5970 5969 5968 5968 5967 5967 5966 5966 5966 5966 5966 5966 5965 5965 5964 5963 5962 5961 5960 5958 5957 5955 5954 5952 5951 5950 5949 5947 5946 5944 5943 5941 5940 5938 5937 5935 5933 5932 5930 5928 5926 5924
5962 5963 5964 5964 5965 5966 5966 5966 5967 5967 5968 5968 5968 5969 5969 5969 5969 5969 5969 5970 5970 5970 5970 5970 5970 5970 5969 5969 5968 5968 5968 5968 5968 5968 5967 5966 5966 5965 5964 5964 5963 5963 5964 5963 5963 5962 5961 5961 5960 5959 5957 5956 5955 5953 5952 5950 5949 5948 5947 5946 5944 5943 5941 5940 5938 5937 5936 5934 5932 5931 5929 5927 5925 5923
5960 5961 5962 5963 5963 5964 5964 5965 5965 5965 5966 5966 5967 5967 5967 5968 5968 5968 5968 5968 5968 5968 5968 5968 5968 5967 5967 5967 5966 5966 5966 5966 5966 5966 5966 5965 5964 5964 5963 5962 5961 5961 5961 5961 5961 5960 5959 5958 5958 5957 5955 5954 5953 5951 5949 5948 5947 5946 5945 5944 5942 5941 5940 5938 5937 5936 5934 5933 5931 5930 5928 5926 5925 5923
5958 5959 5959 5960 5961 5962 5962 5963 5963 5963 5963 5964 5965 5965 5966 5966 5966 5966 5967 5967 5966 5966 5966 5966 5966 5965 5965 5965 5964 5964 5964 5964 5964 5964 5964 5963 5962 5962 5961 5960 5959 5958 5958 5958 5958 5958 5956 5955 5955 5954 5953 5952 5950 5949 5947 5946 5945 5944 5943 5941 5940 5939 5938 5937 5935 5934 5933 5932 5930 5928 5927 5925 5924 5922
5955 5956 5957 5958 5958 5959 5960 5960 5960 5961 5961 5962 5962 5963 5964 5964 5964 5965 5965 5965 5965 5965 5965 5964 5964 5963 5963 5963 5962 5961 5961 5961 5961 5961 5961 5960 5960 5959 5959 5958 5957 5956 5955 5955 5955 5955 5954 5953 5952 5951 5950 5949 5948 5947 5945 5944 5943 5942 5941 5939 5938 5937 5936 5935 5934 5932 5931 5930 5929 5927 5926 5924 5922 5921
5952 5953 5954 5955 5955 5956 5957 5957 5957 5957 5958 5959 5960 5961 5961 5961 5962 5963 5963 5963 5963 5963 5963 5963 5963 5962 5961 5960 5960 5959 5958 5959 5958 5958 5958 5957 5957 5956 5956 5955 5954 5953 5953 5952 5952 5952 5951 5950 5949 5948 5947 5946 5945 5944 5943 5942 5940 5939 5938 5937 5936 5934 5934 5933 5932 5931 5929 5928 5927 5926 5924 5923 5921 5919
5949 5950 5951 5952 5952 5953 5954 5954 5953 5954 5955 5956 5958 5958 5959 5959 5960 5961 5961 5960 5960 5961 5961 5961 5961 5960 5959 5958 5958 5957 5956 5956 5956 5955 5955 5954 5954 5954 5953 5952 5952 5951 5950 5949 5948 5948 5948 5947 5946 5945 5944 5943 5942 5942 5941 5939 5938 5937 5935 5934 5933 5932 5931 5930 5930 5929 5928 5926 5925 5924 5923 5921 5920 5918
5946 5947 5948 5948 5949 5949 5950 5950 5950 5950 5952 5953 5955 5955 5955 5956 5958 5959 5958 5957 5958 5959 5959 5959 5959 5958 5957 5956 5955 5954 5953 5953 5953 5952 5952 5951 5951 5951 5950 5949 5949 5948 5947 5946 5945 5945 5945 5944 5942 5941 5940 5940 5939 5938 5938 5937 5935 5934 5933 5931 5930 5929 5928 5928 5927 5927 5926 5925 5924 5923 5921 5920 5919 5917
5942 5944 5944 5945 5945 5946 5946 5946 5946 5947 5948 5950 5951 5952 5952 5953 5955 5955 5954 5954 5955 5956 5956 5956 5956 5956 5955 5954 5953 5952 5950 5950 5949 5949 5948 5948 5948 5948 5947 5946 5945 5945 5944 5943 5942 5941 5941 5940 5939 5938 5937 5937 5936 5935 5934 5933 5932 5931 5930 5929 5928 5927 5926 5925 5925 5924 5924 5923 5922 5921 5920 5919 5917 5916
5939 5940 5941 5942 5942 5942 5942 5942 5942 5943 5945 5946 5948 5948 5949 5951 5951 5950 5950 5951 5952 5953 5953 5954 5954 5953 5952 5951 5950 5949 5947 5946 5946 5945 5945 5945 5945 5944 5944 5943 5942 5941 5941 5940 5939 5938 5937 5936 5935 5934 5933 5933 5932 5931 5931 5930 5929 5928 5927 5926 5925 5923 5922 5922 5921 5921 5921 5920 5919 5918 5917 5916 5915 5914
5935 5937 5938 5938 5938 5938 5938 5938 5939 5940 5941 5942 5944 5945 5946 5946 5946 5946 5947 5947 5948 5949 5950 5950 5950 5950 5949 5949 5948 5947 5945 5944 5943 5942 5942 5942 5941 5941 5940 5939 5938 5938 5937 5936 5935 5935 5934 5933 5932 5931 5930 5929 5928 5927 5927 5927 5926 5924 5924 5923 5921 5920 5919 5918 5918 5917 5917 5916 5916 5915 5915 5914 5913 5912
5931 5932 5933 5934 5934 5934 5935 5935 5935 5936 5937 5938 5941 5942 5942 5942 5942 5942 5943 5943 5944 5944 5945 5945 5945 5946 5946 5945 5945 5944 5942 5941 5940 5939 5939 5939 5938 5937 5936 5935 5935 5934 5934 5933 5932 5931 5930 5929 5928 5927 5926 5926 5925 5924 5923 5923 5922 5921 5920 5919 5918 5916 5915 5914 5913 5913 5913 5912 5912 5912 5911 5911 5910 5909
5927 5927 5929 5929 5929 5930 5931 5931 5932 5932 5933 5935 5937 5938 5938 5937 5938 5938 5939 5939 5939 5940 5939 5939 5940 5940 5940 5940 5940 5940 5939 5937 5936 5936 5936 5935 5934 5933 5932 5932 5931 5931 5930 5929 5928 5927 5927 5926 5925 5923 5922 5922 5921 5920 5919 5919 5918 5917 5916 5915 5914 5913 5911 5910 5909 5909 5909 5909 5908 5908 5908 5907 5907 5906
5922 5923 5924 5924 5925 5926 5927 5928 5928 5929 5930 5932 5933 5933 5933 5933 5933 5934 5935 5935 5935 5935 5935 5935 5935 5935 5935 5935 5935 5935 5934 5933 5932 5932 5931 5931 5930 5929 5928 5928 5927 5927 5926 5925 5924 5923 5923 5922 5921 5920 5919 5918 5917 5916 5916 5915 5914 5913 5912 5911 5910 5909 5908 5907 5906 5905 5905 5905 5904 5904 5904 5903 5903 5902
5917 5918 5919 5919 5920 5922 5923 5924 5925 5926 5927 5928 5929 5929 5928 5929 5930 5930 5931 5930 5930 5930 5930 5930 5930 5930 5930 5929 5930 5929 5929 5928 5927 5927 5926 5926 5926 5925 5924 5924 5923 5923 5922 5921 5920 5920 5919 5918 5917 5916 5915 5914 5913 5913 5912 5911 5910 5909 5908 5907 5906 5905 5904 5903 5902 5901 5900 5900 5899 5899 5899 5898 5898 5897
5912 5913 5914 5915 5916 5917 5919 5920 5922 5923 5923 5923 5923 5924 5924 5924 5925 5926 5926 5925 5926 5926 5926 5926 5926 5925 5925 5925 5924 5924 5923 5922 5922 5921 5921 5921 5921 5920 5920 5919 5919 5919 5918 5917 5916 5915 5914 5914 5913 5912 5911 5910 5909 5908 5907 5907 5906 5905 5904 5903 5902 5901 5900 5899 5898 5897 5896 5896 5895 5894 5894 5893 5893 5893
5905 5907 5909 5910 5912 5914 5915 5916 5917 5917 5917 5917 5917 5918 5918 5919 5920 5920 5920 5921 5921 5922 5921 5921 5921 5920 5920 5919 5919 5918 5917 5917 5916 5916 5916 5916 5916 5916 5915 5915 5915 5915 5914 5913 5912 5911 5910 5909 5908 5907 5906 5905 5905 5904 5903 5903 5902 5901 5900 5899 5898 5897 5896 5895 5894 5893 5892 5891 5891 5890 5890 5889 5889 5889
5899 5901 5904 5907 5909 5910 5911 5911 5911 5911 5911 5912 5912 5912 5913 5913 5914 5915 5915 5915 5916 5916 5916 5916 5916 5915 5914 5914 5913 5912 5912 5911 5911 5910 5910 5911 5912 5912 5911 5910 5911 5910 5909 5908 5907 5906 5905 5905 5903 5902 5902 5902 5901 5901 5900 5899 5898 5897 5896 5895 5894 5893 5892 5891 5890 5889 5888 5887 5886 5886 5885 5885 5884 5884
5895 5898 5901 5903 5905 5906 5906 5907 5906 5906 5906 5907 5907 5907 5908 5908 5909 5909 5910 5910 5910 5910 5910 5910 5910 5909 5908 5908 5908 5908 5907 5907 5906 5905 5905 5906 5907 5907 5906 5906 5907 5906 5905 5904 5903 5902 5901 5900 5899 5898 5898 5898 5898 5897 5896 5895 5894 5894 5893 5892 5890 5889 5887 5886 5885 5884 5883 5882 5882 5881 5880 5880 5879 5879
5892 5895 5897 5899 5900 5901 5902 5902 5902 5902 5902 5902 5902 5902 5902 5903 5904 5904 5905 5905 5904 5904 5904 5904 5904 5904 5903 5904 5904 5903 5903 5902 5901 5901 5901 5901 5902 5903 5902 5902 5902 5901 5900 5899 5899 5898 5897 5896 5895 5894 5894 5894 5894 5893 5892 5891 5890 5890 5889 5888 5887 5885 5884 5882 5880 5879 5878 5877 5877 5876 5876 5875 5874 5874
5888 5890 5892 5894 5895 5896 5898 5898 5898 5898 5897 5897 5897 5897 5897 5898 5898 5899 5900 5899 5898 5898 5898 5899 5898 5898 5898 5899 5899 5899 5898 5898 5897 5897 5897 5897 5897 5898 5898 5897 5897 5897 5896 5895 5894 5893 5892 5891 5892 5892 5891 5889 5889 5889 5888 5887 5886 5886 5885 5884 5883 5881 5880 5878 5876 5874 5873 5872 5871 5871 5871 5870 5870 5869
5883 5885 5887 5888 5889 5891 5893 5894 5894 5893 5893 5893 5893 5892 5892 5893 5893 5894 5894 5893 5892 5893 5893 5893 5893 5893 5893 5894 5895 5894 5894 5893 5893 5892 5892 5892 5893 5894 5894 5893 5892 5892 5891 5890 5888 5887 5886 5886 5887 5887 5887 5885 5884 5884 5883 5882 5881 5881 5880 5879 5878 5877 5876 5874 5872 5871 5869 5868 5867 5866 5865 5865 5865 5864
5879 5880 5881 5883 5884 5885 5886 5888 5889 5889 5889 5889 5889 5888 5888 5888 5888 5889 5889 5888 5887 5888 5889 5888 5888 5888 5888 5889 5890 5889 5889 5889 5888 5887 5887 5887 5887 5888 5888 5888 5887 5886 5885 5884 5883 5881 5880 5880 5881 5882 5882 5881 5880 5879 5879 5878 5877 5876 5875 5874 5873 5873 5871 5869 5868 5866 5864 5863 5862 5861 5860 5860 5859 5859
5875 5875 5876 5877 5878 5879 5881 5882 5884 5885 5885 5885 5885 5884 5884 5884 5884 5884 5883 5883 5883 5883 5883 5883 5883 5883 5883 5884 5884 5884 5883 5883 5883 5882 5882 5882 5882 5882 5881 5881 5881 5880 5879 5878 5877 5876 5875 5875 5875 5876 5875 5875 5874 5874 5873 5873 5872 5871 5869 5868 5867 5867 5866 5864 5862 5861 5860 5858 5857 5856 5856 5855 5854 5853
5870 5870 5871 5872 5873 5874 5875 5876 5878 5879 5880 5880 5880 5880 5880 5880 5880 5879 5878 5878 5878 5878 5878 5878 5878 5878 5878 5877 5878 5877 5877 5877 5877 5877 5877 5877 5876 5876 5875 5875 5875 5873 5872 5871 5870 5870 5869 5869 5870 5870 5869 5868 5869 5868 5868 5868 5867 5866 5863 5862 5861 5861 5859 5858 5857 5855 5854 5853 5852 5851 5850 5850 5849 5847
5864 5865 5866 5867 5867 5868 5869 5870 5871 5873 5874 5875 5876 5876 5876 5876 5875 5875 5873 5873 5872 5873 5873 5873 5873 5872 5872 5872 5871 5870 5870 5870 5871 5870 5871 5871 5871 5870 5869 5869 5868 5867 5866 5865 5864 5864 5864 5865 5864 5862 5861 5862 5862 5862 5862 5862 5861 5860 5858 5856 5855 5854 5853 5851 5851 5850 5848 5847 5846 5845 5844 5844 5843 5841
5858 5859 5860 5861 5861 5862 5863 5864 5865 5866 5868 5869 5870 5871 5872 5871 5870 5869 5868 5867 5867 5867 5867 5868 5867 5867 5866 5866 5865 5864 5863 5864 5864 5864 5864 5865 5865 5864 5862 5861 5860 5860 5859 5859 5859 5859 5859 5858 5857 5856 5856 5856 5856 5855 5855 5855 5855 5854 5852 5850 5849 5849 5847 5845 5844 5843 5842 5841 5840 5839 5838 5837 5836 5835
5852 5853 5854 5855 5855 5856 5856 5857 5858 5860 5861 5862 5864 5865 5866 5866 5865 5864 5862 5862 5861 5861 5861 5862 5861 5861 5860 5860 5859 5858 5857 5857 5857 5857 5857 5858 5858 5858 5856 5853 5852 5851 5850 5851 5853 5854 5854 5853 5853 5853 5853 5851 5849 5849 5849 5849 5849 5848 5846 5844 5843 5842 5841 5839 5838 5837 5836 5834 5833 5832 5831 5831 5830 5829
5846 5847 5848 5849 5849 5849 5850 5851 5852 5853 5854 5856 5858 5859 5859 5860 5860 5859 5858 5856 5855 5855 5856 5856 5855 5855 5854 5853 5852 5852 5851 5851 5851 5850 5850 5851 5851 5851 5850 5847 5845 5843 5842 5843 5846 5848 5847 5847 5848 5848 5848 5846 5843 5843 5843 5843 5842 5841 5839 5837 5836 5835 5834 5833 5832 5830 5829 5827 5826 5824 5824 5824 5823 5822
5840 5840 5841 5842 5842 5842 5844 5846 5847 5847 5849 5851 5852 5853 5852 5852 5853 5853 5852 5851 5850 5849 5850 5850 5850 5849 5849 5847 5846 5845 5846 5845 5844 5843 5844 5845 5846 5846 5845 5842 5839 5836 5835 5836 5838 5839 5839 5839 5840 5841 5840 5839 5837 5836 5837 5836 5835 5834 5832 5830 5828 5828 5827 5826 5825 5823 5821 5820 5818 5817 5816 5816 5815 5815
5834 5834 5835 5836 5837 5837 5839 5841 5841 5841 5842 5844 5846 5846 5845 5845 5845 5846 5846 5845 5844 5843 5843 5844 5845 5844 5843 5841 5839 5838 5839 5838 5838 5837 5837 5838 5839 5839 5838 5836 5833 5831 5830 5830 5831 5832 5833 5833 5833 5834 5833 5832 5830 5829 5829 5829 5828 5827 5825 5823 5821 5820 5819 5818 5817 5815 5814 5813 5811 5810 5809 5808 5807 5806
Wind_Speed
13 13 13 13 13 12 12 11 11 11 11 11 11 11 11 10 10 9 8 8 7 6 5 5 4 4 4 3 3 4 5 6 7 9 11 12 13 14 15 15 16 16 17 19 20 22 23 23 23 23 23 24 25 26 27 27 27 28 30 32 34 36 37 37 37 39 41 39 36 34 33 34 35 37
12 13 13 13 13 13 12 11 11 11 10 11 11 11 10 10 10 10 9 8 7 6 5 4 4 3 2 2 1 2 4 5 5 6 8 9 11 12 13 14 14 14 15 16 18 20 21 22 22 22 22 23 24 25 26 26 27 28 30 32 33 35 36 36 37 39 41 38 34 32 31 32 34 37
12 12 13 13 13 13 12 12 11 10 10 10 10 11 10 10 10 10 10 9 8 6 5 4 3 2 1 0 1 2 3 3 4 5 6 7 8 10 11 12 13 13 13 14 16 18 20 21 21 22 22 22 23 25 25 26 27 28 30 31 33 34 35 36 37 38 40 37 33 31 30 30 34 36
11 11 11 12 12 12 12 12 11 10 10 10 10 10 10 9 9 9 9 9 8 8 7 6 5 3 3 3 3 3 4 4 4 5 5 5 6 7 9 10 11 12 13 14 15 17 19 20 21 21 22 22 23 24 25 26 27 28 29 30 32 33 34 35 36 38 39 37 32 29 28 29 32 34
10 10 10 10 10 11 11 11 11 10 10 9 9 9 9 9 9 9 8 8 8 8 8 8 7 6 6 6 5 5 5 5 6 6 6 6 5 6 8 9 11 12 13 15 15 16 18 19 20 21 22 23 24 24 24 25 26 28 29 29 30 32 33 34 36 36 37 36 31 28 27 28 30 31
10 9 9 9 9 10 10 11 10 10 10 9 9 9 9 9 9 9 9 9 8 9 9 9 9 9 8 8 8 7 7 7 7 7 8 8 7 7 8 8 10 12 13 15 16 16 17 18 19 21 22 23 24 24 24 24 25 27 28 28 29 31 32 33 34 35 36 35 31 27 26 27 28 28
10 9 9 9 9 9 9 10 10 10 10 10 10 10 9 9 10 10 10 10 10 10 10 10 10 11 10 10 10 10 10 9 9 9 9 10 9 8 9 8 9 11 13 14 16 17 17 18 19 21 22 23 23 23 23 23 24 25 27 28 28 29 31 32 33 34 34 34 32 27 24 25 26 26
10 10 9 9 8 8 8 8 9 10 10 11 11 11 11 11 11 11 11 11 11 12 11 11 12 12 12 12 12 12 12 12 12 12 12 12 11 10 10 10 9 11 13 15 16 17 18 18 20 21 22 23 23 22 22 23 23 24 25 27 27 28 30 31 32 32 33 33 32 27 24 23 24 25
10 9 9 9 8 8 8 7 7 7 8 9 10 11 11 12 12 13 14 14 14 14 14 14 13 13 13 13 13 13 14 14 14 14 14 14 14 13 13 13 12 12 13 15 17 18 19 19 20 21 22 22 23 22 22 22 22 23 24 25 26 27 29 30 30 31 31 31 31 28 24 22 22 22
10 9 9 9 8 8 7 7 6 6 6 7 8 8 9 10 11 12 14 14 15 15 16 16 16 15 16 16 15 14 14 16 16 16 14 14 15 15 15 16 16 14 14 16 17 18 20 21 21 22 23 23 23 23 22 22 22 22 22 24 25 26 27 28 29 29 30 30 30 28 25 22 21 21
10 10 9 9 9 8 7 6 6 6 6 6 6 7 7 8 9 10 11 12 13 14 15 17 17 17 17 18 17 16 16 16 17 18 17 15 15 15 15 16 17 16 15 16 18 19 20 21 22 23 23 23 23 23 23 22 21 21 21 22 23 24 26 27 27 28 28 28 28 28 26 23 21 20
11 11 10 10 10 9 8 7 6 6 6 7 7 7 7 7 8 9 9 10 10 12 13 14 16 16 16 17 18 18 17 17 18 19 20 19 17 16 15 15 17 17 17 16 17 19 19 20 21 22 22 23 23 23 23 23 22 21 20 21 22 23 23 24 25 26 26 27 26 26 26 24 23 21
12 12 12 12 11 11 10 9 9 9 8 9 9 9 8 8 9 9 9 9 10 10 11 13 14 14 15 15 15 16 16 16 18 19 20 21 20 19 18 16 16 17 17 16 16 17 18 19 19 20 21 22 23 23 23 23 22 21 20 20 20 21 21 22 23 24 24 25 25 25 25 24 23 22
14 14 14 13 13 12 12 11 11 11 10 11 11 12 11 11 10 10 10 10 11 11 11 12 13 13 14 14 14 13 13 13 16 18 20 20 20 20 20 19 16 16 16 16 16 16 17 17 18 19 19 21 22 23 23 23 23 22 20 19 19 19 19 20 21 21 22 23 23 24 24 23 23 23
17 17 16 15 14 14 13 13 13 12 12 12 13 13 13 13 12 12 12 12 12 12 12 12 13 14 15 15 14 13 12 11 12 15 17 18 19 20 20 20 19 16 16 16 16 16 16 16 17 18 18 19 21 22 23 23 23 23 21 19 19 18 18 18 18 19 20 21 22 22 22 22 22 22
20 20 19 18 17 16 16 15 15 14 14 14 15 15 14 14 13 13 13 13 13 13 13 13 14 15 16 16 16 15 14 13 12 13 15 16 17 19 19 20 20 18 17 17 17 17 18 18 17 18 18 18 19 21 22 23 23 23 22 20 19 18 17 17 17 17 18 19 20 21 22 22 22 22
23 22 22 21 20 19 18 17 17 17 17 17 17 16 16 15 15 15 14 13 13 13 13 13 14 15 15 16 17 17 15 15 14 14 14 15 16 17 18 19 20 19 18 17 17 18 19 19 18 18 18 18 19 20 22 23 23 23 23 22 19 18 18 16 16 16 17 18 19 20 21 21 21 21
26 26 25 24 23 22 22 21 20 20 19 19 19 18 17 17 17 16 15 15 15 14 13 14 15 15 15 15 17 18 16 16 16 16 15 16 16 16 17 17 19 19 18 17 16 17 19 20 19 18 18 18 18 20 21 22 23 23 23 23 21 19 18 17 16 16 16 17 18 18 19 20 20 20
29 29 28 27 26 26 25 24 24 23 23 22 21 19 19 19 19 18 17 18 17 16 15 14 15 16 16 16 17 18 18 17 17 17 16 16 18 18 17 17 18 19 18 17 17 16 18 19 19 19 19 19 18 19 21 22 23 23 23 23 22 20 19 17 16 16 16 16 17 17 18 19 19 19
30 30 30 30 29 29 28 27 27 27 27 25 23 22 21 21 20 19 19 20 19 18 17 16 16 17 18 18 18 19 19 18 18 18 18 18 19 19 18 17 18 19 18 17 17 17 17 19 20 19 19 20 19 19 21 22 22 23 23 23 23 22 20 18 17 16 17 17 17 17 18 18 18 18
29 30 30 31 32 32 31 31 31 31 30 28 26 25 24 23 22 21 22 22 21 20 19 18 18 18 19 20 20 20 21 20 20 19 19 20 20 19 18 18 18 19 18 18 19 18 17 18 20 20 20 20 20 20 21 22 23 23 23 23 23 22 21 20 18 17 17 18 18 18 18 18 18 18
28 29 30 31 32 33 34 35 35 35 33 31 30 29 28 27 24 23 24 25 23 21 21 20 19 20 21 21 22 22 22 22 21 21 21 21 21 19 19 19 19 19 19 20 22 21 19 19 21 22 21 21 22 22 22 23 24 24 24 23 23 22 22 22 20 18 18 18 19 19 20 19 19 19
30 29 30 30 31 32 34 36 36 36 35 33 32 32 31 29 27 27 28 28 24 22 22 21 21 21 22 22 23 24 24 24 23 22 22 22 22 20 19 19 19 20 20 22 24 23 21 21 22 23 23 22 22 23 24 25 26 26 25 25 24 23 23 23 22 20 19 19 19 20 21 21 20 20
31 30 30 31 31 32 34 35 36 36 35 33 32 32 31 30 30 31 31 30 28 25 24 23 22 23 23 24 24 25 26 26 25 24 23 23 23 21 21 21 21 21 22 23 25 24 23 23 24 25 25 25 24 25 26 26 28 28 27 26 26 25 24 24 24 22 21 20 20 21 21 22 22 22
31 30 30 31 32 33 34 35 36 36 35 34 32 31 31 31 32 33 32 31 30 29 28 27 26 26 26 26 26 27 28 29 28 26 25 25 24 23 23 24 24 24 24 24 25 25 25 25 26 26 27 27 26 27 27 28 29 29 29 28 27 27 27 26 25 24 23 21 21 21 22 23 23 23
32 32 32 32 33 34 34 35 36 36 35 34 31 30 31 32 33 33 32 31 31 31 31 31 31 30 29 29 29 29 31 31 31 30 28 27 26 26 27 27 27 26 26 26 26 26 26 26 27 28 28 28 28 29 28 28 29 30 30 29 28 29 29 28 27 25 24 23 22 22 22 23 23 24
35 35 34 34 34 35 34 35 35 36 35 33 31 30 31 32 32 32 31 31 31 31 32 33 33 33 33 33 32 32 33 34 33 32 31 29 29 29 30 29 28 28 28 28 28 28 28 28 29 29 30 29 29 30 30 29 30 31 31 30 29 29 30 31 29 28 26 24 23 22 23 23 23 23
35 36 36 36 37 36 35 35 35 36 35 33 32 32 32 32 32 31 30 30 31 31 32 33 34 35 36 36 35 35 35 35 35 34 33 32 32 32 32 31 30 29 29 29 29 29 30 30 30 31 31 31 31 30 30 30 30 30 30 30 30 30 31 31 31 29 28 27 25 24 23 24 24 24
35 35 36 37 38 37 37 36 35 34 34 33 33 34 34 34 33 32 31 31 31 31 31 32 33 34 36 37 37 37 36 36 36 36 35 34 34 34 33 32 32 31 30 30 30 31 31 31 32 32 32 32 32 31 31 31 31 31 31 31 31 32 32 32 31 30 29 28 27 26 25 25 26 26
34 34 35 36 37 37 36 36 35 34 35 35 35 34 34 34 33 33 33 33 32 32 32 32 32 33 35 36 37 38 38 38 37 37 36 35 35 34 34 33 32 32 32 32 31 31 32 32 32 32 32 33 32 31 31 32 32 32 32 32 32 32 33 32 32 31 30 29 28 27 27 27 27 27
34 34 33 33 33 33 33 33 33 35 36 37 36 36 36 35 34 33 34 33 33 32 32 32 32 33 34 35 36 37 38 38 38 37 37 36 35 35 35 34 33 32 33 33 33 33 33 33 33 33 33 33 32 30 30 30 32 32 32 32 32 32 32 32 31 31 30 29 29 28 28 28 28 28
34 33 31 30 29 29 29 30 31 32 34 34 35 36 36 36 36 35 34 34 33 33 32 32 32 32 33 34 36 37 38 38 38 38 37 36 35 35 36 35 33 34 34 35 35 35 34 33 34 34 32 30 29 29 29 29 30 31 31 31 32 33 33 32 31 31 31 30 30 29 29 29 29 29
34 31 29 28 27 27 27 28 29 30 30 31 32 32 33 34 35 35 35 34 34 33 33 33 32 33 34 34 35 36 37 37 38 38 38 36 36 36 37 36 35 36 37 36 36 36 35 35 35 33 29 27 28 29 29 29 29 29 30 31 32 33 33 33 32 31 31 30 29 28 28 28 28 29
33 31 29 28 27 26 26 27 28 29 30 30 30 31 32 32 31 32 33 33 33 33 33 33 34 34 34 34 35 35 36 36 38 38 38 37 37 36 37 37 37 38 39 38 37 37 37 37 34 30 28 28 29 28 28 29 29 29 30 31 32 33 33 32 32 31 30 29 27 26 25 25 26 28
34 31 29 29 29 27 26 26 28 29 30 30 31 32 32 32 31 30 31 32 33 33 33 34 35 36 36 35 34 35 35 36 37 38 38 38 37 36 36 38 39 40 41 40 38 37 37 37 33 30 29 29 27 26 27 29 29 28 29 30 32 32 32 31 30 29 28 27 26 25 24 24 25 27
34 32 31 31 32 30 28 27 28 29 30 30 31 32 33 32 32 31 31 33 35 35 34 34 36 37 37 36 35 35 36 36 37 38 38 38 37 35 36 38 40 41 41 39 39 39 37 37 35 32 30 28 25 25 28 30 28 27 29 31 32 31 31 31 30 29 27 27 26 26 26 26 26 26
35 35 34 34 34 34 32 30 29 29 30 31 31 33 34 34 33 33 33 35 37 37 36 37 37 38 37 36 35 36 37 37 38 38 38 37 36 35 35 37 40 42 41 39 39 39 38 39 39 36 31 28 26 27 29 29 28 28 31 33 32 31 30 31 31 30 29 28 28 28 28 28 28 28
38 37 37 37 37 38 37 35 33 31 32 32 32 33 34 35 35 35 35 36 37 38 39 39 39 38 37 36 36 37 37 38 39 38 37 37 36 36 37 39 40 41 40 40 39 38 38 37 36 33 31 29 27 28 31 30 29 30 34 36 34 31 30 31 31 31 31 31 30 30 30 30 30 30
41 40 40 40 40 40 40 39 37 35 34 34 34 34 35 35 35 36 37 37 37 38 40 40 39 39 38 37 37 37 38 39 39 38 38 37 36 38 40 41 42 42 42 41 41 40 38 35 32 31 32 31 29 30 32 32 32 34 37 38 36 34 32 32 31 31 32 32 32 32 32 32 32 32
45 44 43 42 43 43 43 42 41 40 38 37 36 35 36 36 36 37 38 38 38 38 39 39 40 40 40 39 39 39 40 40 39 39 39 38 39 41 43 44 45 46 44 42 42 42 41 38 36 35 34 32 32 34 34 33 35 38 39 39 37 36 35 35 33 33 33 33 34 34 34 34 34 34
47 46 45 45 45 45 45 44 44 43 41 40 39 38 37 38 38 39 40 39 39 39 39 39 40 41 41 41 41 42 42 41 41 41 41 41 42 43 45 46 47 47 46 44 43 42 43 42 40 38 36 35 37 38 37 36 39 40 40 40 39 37 37 37 36 36 36 35 35 35 36 36 36 37
49 48 47 47 46 46 46 46 46 45 44 43 42 41 40 39 40 41 43 43 42 41 40 39 40 41 42 43 44 44 44 44 43 43 43 44 43 43 44 45 46 47 48 47 45 44 44 44 40 38 37 39 40 39 37 39 41 41 41 42 41 39 38 38 38 38 38 38 38 38 38 39 40 40
51 50 49 48 48 49 48 47 47 47 46 45 43 43 43 43 42 41 43 45 46 45 42 41 41 42 43 45 46 47 47 47 46 46 46 45 43 42 42 43 45 48 48 47 45 44 45 44 41 39 39 40 40 39 37 39 41 42 42 43 43 42 41 41 40 41 41 41 42 42 42 43 44 44
52 52 51 50 50 51 50 49 49 50 49 46 44 43 44 44 43 43 44 45 48 49 47 44 42 42 43 46 48 49 49 49 49 50 49 47 46 45 44 45 47 49 48 46 44 44 45 45 44 44 43 42 42 41 41 42 43 44 44 44 44 45 45 45 44 45 45 45 46 47 46 46 46 46
53 53 53 52 53 53 52 51 51 51 50 47 45 45 46 46 45 46 46 46 47 49 49 47 45 43 43 46 49 51 52 52 53 53 51 50 50 49 49 49 50 50 50 49 47 46 46 47 47 47 47 46 45 44 44 45 45 45 44 45 46 47 47 48 48 48 48 48 50 51 50 49 48 47
Wind_Direction
166 165 165 165 166 166 166 170 174 178 184 189 190 190 188 186 183 180 175 170 165 159 150 142 133 125 118 101 82 72 69 66 63 67 70 67 63 61 56 50 46 44 44 44 40 36 32 29 27 25 23 22 20 18 18 17 16 16 17 18 19 19 18 18 21 22 20 21 25 28 29 32 32 29
172 171 171 170 171 172 173 176 179 181 187 195 198 198 196 194 194 195 196 194 189 181 173 164 154 145 131 108 66 48 50 50 46 50 58 60 58 56 52 45 39 35 36 40 39 34 30 27 25 23 22 20 18 17 16 14 14 15 17 18 19 18 17 18 21 23 21 21 26 28 29 33 33 30
175 175 176 176 176 177 179 182 184 186 191 198 204 206 205 204 204 207 209 212 214 213 213 209 197 193 207 290 328 348 8 22 22 22 33 47 53 51 45 40 32 24 23 31 34 31 26 23 21 20 19 18 17 16 14 12 12 13 15 18 19 18 17 18 21 23 22 21 26 28 30 34 35 32
178 178 179 182 184 184 186 188 190 191 195 202 208 213 215 215 216 217 220 224 229 233 238 243 244 249 263 278 293 311 326 340 351 356 1 14 37 44 38 33 24 14 12 17 23 24 20 17 16 15 15 15 15 14 11 10 10 11 14 16 18 18 17 18 21 23 22 22 25 28 31 36 37 35
183 183 183 186 190 194 196 198 199 200 202 208 214 219 222 226 230 231 234 237 239 244 250 255 259 264 270 276 284 295 306 317 325 334 340 343 3 25 27 23 13 4 4 5 8 14 13 11 11 10 10 11 13 11 8 7 7 9 11 14 16 17 17 18 21 22 21 21 24 27 31 35 38 39
188 189 189 192 196 201 205 207 209 210 212 216 221 225 228 232 236 240 244 248 250 254 258 262 266 270 273 278 284 291 297 304 310 316 321 325 340 360 7 10 4 356 356 356 356 1 5 5 5 4 4 6 8 8 5 4 5 6 8 11 13 16 16 17 20 21 20 21 23 26 31 34 37 40
189 190 191 195 201 205 209 213 217 220 223 226 230 233 236 238 241 245 249 253 256 259 263 266 270 273 276 279 283 289 294 298 302 305 308 314 327 341 346 352 355 348 347 348 348 351 354 357 359 358 359 0 2 3 2 1 2 3 5 8 10 13 15 16 19 19 19 21 23 25 29 32 35 38
189 190 190 192 197 201 207 213 219 226 230 235 238 241 244 246 248 251 254 257 259 262 264 267 270 275 278 281 284 287 290 293 297 300 303 307 316 325 328 333 341 341 339 340 341 342 344 348 352 353 354 355 355 357 358 359 359 359 1 4 7 11 14 15 18 18 18 20 22 23 26 29 32 36
194 194 193 194 195 197 201 207 214 223 231 237 242 245 249 251 252 255 258 261 263 266 268 270 272 275 279 283 286 288 290 293 296 298 301 304 310 316 319 321 328 334 333 332 333 335 337 340 345 347 348 349 349 350 353 356 356 356 358 1 5 9 12 14 16 17 17 19 20 21 23 26 29 32
202 203 202 205 206 204 204 206 210 216 224 234 242 247 251 253 254 257 259 263 265 268 272 275 276 277 280 283 287 288 289 292 296 300 303 304 306 311 315 316 320 326 326 325 327 329 331 334 338 341 342 343 343 344 347 351 353 353 355 358 2 6 10 12 14 16 16 17 19 19 20 22 23 26
212 212 213 217 221 221 220 220 221 222 226 233 241 246 251 255 258 261 263 266 269 271 274 277 280 281 281 283 286 287 287 288 292 298 303 308 309 310 314 315 316 321 324 324 325 325 327 330 333 336 337 338 338 339 341 344 348 350 351 353 358 4 7 9 12 14 13 15 16 17 18 20 19 19
220 220 222 226 232 237 239 241 243 245 246 248 253 256 258 259 263 267 270 271 274 276 278 280 283 286 286 285 286 288 289 288 288 292 297 304 310 312 316 318 317 320 324 326 325 324 325 328 328 330 333 334 335 336 337 338 341 345 347 349 353 360 4 7 9 11 11 12 14 14 15 17 17 16
228 227 228 231 237 244 249 252 254 257 260 262 265 269 271 271 271 273 276 276 276 277 280 282 286 290 292 293 295 295 295 293 290 289 292 296 301 306 310 314 316 318 321 325 326 324 324 325 325 326 330 333 334 334 334 334 335 338 342 345 347 353 0 4 6 9 9 9 11 12 12 13 15 15
232 233 233 235 239 245 250 254 258 260 263 266 268 272 275 276 277 277 278 279 280 281 282 285 291 294 295 299 305 306 305 300 293 289 289 291 294 298 301 306 311 314 317 320 324 324 322 324 324 324 328 332 334 334 333 332 331 332 335 339 341 345 354 360 2 4 6 7 7 9 10 10 11 12
233 235 237 238 240 243 246 250 255 259 262 265 269 272 275 276 278 278 279 280 283 287 287 288 292 294 294 300 309 312 312 309 298 292 291 292 293 294 297 301 305 310 312 315 319 321 322 324 326 325 327 332 334 334 332 330 329 328 328 332 335 337 344 353 356 358 1 3 4 6 7 9 8 8
233 236 238 240 241 242 244 247 251 255 257 260 265 271 275 278 279 278 279 281 284 286 287 289 291 291 293 299 305 310 314 314 307 302 300 299 297 295 296 298 301 304 307 311 315 319 320 323 326 326 327 331 333 333 332 330 329 327 325 325 328 330 334 343 349 351 354 357 359 2 4 6 8 6
233 235 238 240 242 242 244 246 249 251 254 256 259 264 270 275 278 280 282 284 285 286 287 288 289 290 295 300 303 306 311 312 309 308 308 306 303 300 299 298 299 300 302 305 309 313 315 318 322 323 324 328 331 331 330 329 329 327 324 321 321 323 326 332 339 343 345 349 353 357 360 3 6 7
233 235 238 240 242 243 243 245 246 249 252 254 257 260 265 269 272 277 281 282 283 285 286 287 289 293 300 304 305 308 310 310 308 307 307 307 305 304 305 303 301 299 300 301 302 305 308 312 316 318 320 324 327 327 327 327 328 328 324 320 317 317 318 322 329 333 337 341 345 350 354 357 2 6
234 235 238 240 241 243 244 245 246 248 251 253 256 259 262 265 268 271 275 277 278 280 282 285 290 295 301 305 306 307 309 310 308 306 305 303 302 304 308 307 303 301 301 300 298 298 301 305 309 313 316 319 322 323 324 325 326 326 324 320 315 313 312 314 319 324 328 332 336 341 346 349 355 2
237 237 238 239 241 243 245 247 248 250 251 254 256 258 260 263 266 269 272 273 275 277 280 284 289 292 296 300 301 302 303 305 306 306 305 301 300 304 307 305 302 303 303 301 297 296 297 299 304 308 310 312 316 318 320 321 322 323 322 318 314 311 308 309 312 317 320 323 327 331 336 341 346 352
242 241 241 241 242 243 245 248 250 252 254 255 256 257 259 261 264 268 271 271 272 274 278 281 286 288 290 293 295 296 298 299 301 303 303 300 302 306 306 302 301 302 302 300 297 297 297 297 300 303 305 307 311 314 316 317 318 318 317 315 312 309 306 305 307 311 314 317 320 323 327 332 337 341
246 245 245 245 245 245 247 249 251 253 256 257 257 258 259 261 263 266 268 269 270 272 276 279 281 283 285 286 288 290 291 293 295 297 298 299 302 305 304 301 299 298 298 297 297 299 299 297 298 300 302 304 307 310 312 313 313 314 314 312 309 307 305 303 303 306 310 312 315 318 320 325 329 332
248 247 247 247 247 247 248 250 252 254 257 259 259 260 261 262 263 263 265 267 270 272 274 275 276 278 280 281 283 284 285 287 289 291 293 295 298 302 302 299 295 292 292 292 295 299 300 298 297 298 301 303 304 306 308 309 309 312 314 313 310 306 304 301 300 302 305 308 312 314 316 319 322 325
250 249 249 249 249 249 250 252 254 256 259 261 262 264 265 265 263 262 264 267 269 270 272 273 274 275 276 277 278 280 282 283 284 285 287 290 293 296 297 294 290 289 289 290 294 297 298 297 297 298 299 301 302 303 304 306 308 310 314 315 313 309 305 301 298 298 300 303 307 311 313 315 318 320
254 253 252 252 251 251 251 254 257 259 261 262 264 266 268 266 265 265 267 268 269 270 271 272 273 274 276 276 277 278 280 281 282 283 284 286 288 289 289 288 288 289 290 291 292 294 294 294 295 296 298 299 300 300 302 304 307 309 310 312 313 311 307 302 298 296 296 299 302 305 309 313 316 319
257 256 255 254 253 253 253 255 258 260 262 263 266 267 267 267 267 268 269 270 271 271 271 271 272 274 275 276 277 278 279 280 281 282 283 284 285 284 283 284 286 289 291 291 292 292 292 292 293 294 296 296 297 298 301 304 305 306 307 308 309 310 308 303 298 294 293 295 297 300 305 309 313 317
258 258 258 257 256 255 255 256 259 261 264 266 268 269 268 268 269 270 270 270 270 270 270 271 272 273 274 275 276 277 278 280 281 283 283 283 282 281 281 283 286 288 289 291 291 292 292 292 292 293 294 294 295 297 300 302 303 303 304 306 307 308 307 303 299 294 291 291 292 296 300 303 306 310
259 259 259 259 259 259 259 259 260 262 266 269 270 270 270 270 270 272 273 272 271 270 269 270 271 272 273 274 275 276 276 278 280 280 280 280 280 280 282 283 284 285 288 289 291 292 293 292 292 293 294 294 294 296 297 299 300 302 304 306 307 307 305 302 298 295 292 291 291 293 296 298 300 303
260 259 259 260 261 262 262 262 263 265 268 269 269 270 272 273 275 276 275 274 274 273 272 271 270 271 272 273 274 275 276 276 277 276 276 276 277 278 280 281 282 284 287 288 290 292 292 293 293 294 294 294 293 294 295 297 299 302 304 305 306 305 303 300 297 295 294 293 293 294 295 297 299 301
263 262 261 261 261 262 264 266 269 270 271 270 270 270 271 273 275 276 276 275 276 276 276 275 273 272 272 272 273 275 275 275 275 274 274 274 274 275 277 278 280 283 285 286 288 290 291 293 294 294 292 291 290 290 292 295 298 301 303 304 304 304 303 299 296 294 293 293 292 293 295 297 299 300
264 262 261 262 262 264 266 267 268 269 270 270 271 271 271 271 272 273 275 276 277 277 277 277 276 274 273 272 272 273 273 274 274 273 273 272 273 274 276 277 279 281 282 284 286 287 289 290 290 289 286 282 281 282 287 293 297 299 301 303 304 304 304 301 296 291 290 290 290 291 292 294 295 296
260 261 262 264 265 266 267 266 266 267 268 270 272 272 272 272 273 273 273 275 276 277 277 277 276 274 272 271 270 270 271 272 272 272 272 271 272 274 275 277 278 279 280 282 283 284 285 286 287 287 285 280 277 279 285 291 295 298 300 302 303 304 304 303 298 291 287 287 288 288 288 290 292 292
261 263 265 267 268 267 267 267 268 269 271 272 273 274 273 273 273 273 274 275 276 277 277 277 276 273 271 270 269 270 271 272 272 271 271 270 271 273 274 276 277 278 279 281 283 283 282 281 283 284 284 281 280 282 286 290 294 297 299 300 301 301 302 302 299 292 286 284 286 286 286 287 287 287
263 266 268 269 269 268 267 268 269 270 272 274 276 277 276 275 274 274 274 274 273 274 275 275 274 273 272 272 273 273 273 272 272 271 270 270 271 273 274 276 277 279 281 283 285 284 281 277 278 281 283 282 281 281 286 290 294 296 298 298 298 298 300 301 299 294 288 283 283 283 283 283 282 282
266 269 271 272 272 270 268 269 270 271 272 274 277 278 279 278 277 276 274 272 270 269 270 272 273 274 274 275 275 275 274 273 272 271 271 271 273 275 277 278 280 282 284 285 286 285 279 275 277 284 286 283 277 277 285 290 292 294 296 295 295 296 298 298 298 295 289 283 281 281 279 277 277 277
271 273 273 274 275 274 271 270 271 272 272 274 277 279 279 279 279 278 275 271 268 267 267 268 270 272 274 275 275 275 275 275 275 274 273 274 275 276 279 281 282 283 283 281 282 282 277 271 273 281 285 282 276 276 283 287 289 291 293 292 293 295 296 296 295 292 288 284 281 280 278 275 274 274
272 272 273 274 275 275 274 272 271 272 273 274 276 279 280 281 281 281 278 274 272 270 268 267 268 270 273 275 276 277 277 277 277 276 275 276 276 276 278 280 282 283 281 277 276 278 276 272 271 273 277 277 275 275 280 284 287 290 291 290 290 292 293 293 292 290 287 284 281 279 277 276 276 275
269 270 271 271 272 273 274 273 271 272 273 273 275 277 279 281 282 283 282 280 278 275 272 271 271 272 273 274 276 277 278 278 277 276 275 275 274 275 276 279 281 281 277 271 269 271 272 272 270 267 265 268 270 272 276 280 285 289 290 288 289 290 290 291 292 290 287 284 282 279 279 278 277 277
267 267 267 268 269 270 271 272 272 272 272 272 273 274 276 278 281 283 284 283 282 280 277 276 276 275 275 275 276 276 277 277 276 275 274 273 273 274 276 278 280 278 273 267 265 265 266 268 267 262 261 265 269 270 272 278 285 288 287 288 289 290 289 289 290 291 290 286 282 280 278 277 277 277
266 266 266 267 267 268 269 270 271 271 271 271 271 272 275 277 280 281 283 284 284 283 281 280 278 277 276 276 275 275 275 275 274 273 272 272 274 274 276 277 278 275 269 264 263 263 263 264 264 262 263 267 270 268 269 278 285 285 286 288 291 292 291 289 289 290 290 288 284 281 278 277 276 276
264 265 265 265 265 266 267 268 269 270 271 271 271 271 273 276 278 280 282 283 285 285 285 283 281 279 277 277 276 275 274 273 272 272 273 275 277 277 277 277 276 271 265 260 257 257 257 258 260 263 268 272 272 267 267 276 282 283 285 288 291 292 291 290 289 288 289 288 286 283 280 279 278 277
263 263 264 264 265 265 266 267 269 271 272 272 273 274 274 275 277 279 281 282 283 284 285 285 284 282 280 279 278 276 275 274 273 275 277 279 280 279 278 277 274 269 264 259 254 253 255 257 259 264 269 272 269 265 265 274 280 282 284 287 289 291 291 288 286 286 286 286 286 283 281 279 279 279
264 264 265 266 266 267 267 269 271 273 274 275 277 278 280 279 277 277 278 279 280 280 281 282 283 283 283 281 279 278 277 277 277 278 280 281 280 280 279 277 273 269 267 263 257 255 258 259 260 262 266 268 268 265 266 273 278 281 283 287 290 292 292 289 286 286 286 287 287 286 284 282 281 280
264 265 267 268 268 270 271 273 275 276 276 276 277 279 281 281 279 277 278 279 279 279 279 279 279 280 281 281 280 280 279 279 279 280 281 281 280 280 280 279 275 271 269 264 256 252 253 256 258 262 266 268 268 266 266 271 276 280 284 288 291 293 294 292 289 288 288 288 289 289 289 287 285 283
263 265 267 268 270 272 274 276 277 278 277 277 277 277 277 277 277 278 279 280 280 280 280 279 278 277 277 279 280 280 280 280 281 281 281 282 283 283 282 278 274 271 269 264 258 254 255 258 260 262 264 266 267 266 267 272 277 281 284 287 289 291 292 292 290 288 288 289 290 290 289 289 288 287